Time,TemperatureF,DewpointF,PressureIn,WindDirection,WindDirectionDegrees,WindSpeedMPH,WindSpeedGustMPH,Humidity,HourlyPrecipIn,Conditions,Clouds,dailyrainin,SoftwareType,DateUTC
2013-01-12 00:00:00,6.8,-6.3,30.03,West,274,0.0,0.0,54,0.00,,CLR,0.00,VWS V14.01,2013-01-12 07:00:00,
2013-01-12 00:05:00,6.2,-6.1,30.03,West,274,0.0,0.0,56,0.00,,CLR,0.00,VWS V14.01,2013-01-12 07:05:00,
2013-01-12 00:10:00,5.9,-6.0,30.03,West,274,0.0,0.0,57,0.00,,CLR,0.00,VWS V14.01,2013-01-12 07:10:00,
2013-01-12 00:15:00,5.5,-6.4,30.04,ESE,109,0.0,0.0,57,0.00,,CLR,0.00,VWS V14.01,2013-01-12 07:15:00,
2013-01-12 00:20:00,5.2,-6.7,30.04,ESE,107,1.0,3.0,57,0.00,,CLR,0.00,VWS V14.01,2013-01-12 07:20:00,
2013-01-12 00:25:00,4.7,-6.5,30.04,SE,131,0.0,3.0,59,0.00,,CLR,0.00,VWS V14.01,2013-01-12 07:25:00,
2013-01-12 00:30:00,5.0,-5.8,30.04,SE,131,0.0,0.0,60,0.00,,CLR,0.00,VWS V14.01,2013-01-12 07:30:00,
2013-01-12 00:35:00,4.9,-6.3,30.04,ENE,72,2.0,2.0,59,0.00,,CLR,0.00,VWS V14.01,2013-01-12 07:35:00,
2013-01-12 00:40:00,4.6,-6.6,30.03,ENE,73,1.0,2.0,59,0.00,,CLR,0.00,VWS V14.01,2013-01-12 07:40:00,
2013-01-12 00:45:00,3.6,-7.2,30.04,East,82,0.0,2.0,60,0.00,,CLR,0.00,VWS V14.01,2013-01-12 07:45:00,
2013-01-12 00:50:00,3.4,-6.7,30.03,East,89,1.0,2.0,62,0.00,,CLR,0.00,VWS V14.01,2013-01-12 07:50:00,
2013-01-12 00:55:00,3.5,-6.6,30.03,ESE,105,2.0,3.0,62,0.00,,CLR,0.00,VWS V14.01,2013-01-12 07:55:00,
2013-01-12 01:00:00,0.7,-7.7,30.04,ESE,118,2.0,5.0,67,0.00,,OVC120,0.00,VWS V14.01,2013-01-12 08:00:00,
2013-01-12 01:01:00,2.9,-7.2,30.04,ESE,113,1.0,2.0,62,0.00,,CLR,0.00,VWS V14.01,2013-01-12 08:01:00,
2013-01-12 01:06:00,2.4,-7.3,30.04,ESE,114,2.0,3.0,63,0.00,,CLR,0.00,VWS V14.01,2013-01-12 08:06:00,
2013-01-12 01:11:00,2.1,-7.3,30.04,ESE,114,1.0,3.0,64,0.00,,CLR,0.00,VWS V14.01,2013-01-12 08:11:00,
2013-01-12 01:16:00,1.7,-7.3,30.04,ESE,118,2.0,3.0,65,0.00,,CLR,0.00,VWS V14.01,2013-01-12 08:16:00,
2013-01-12 01:21:00,1.9,-6.8,30.04,ESE,111,2.0,3.0,66,0.00,,CLR,0.00,VWS V14.01,2013-01-12 08:21:00,
2013-01-12 01:26:00,1.4,-7.3,30.04,ESE,113,3.0,3.0,66,0.00,,CLR,0.00,VWS V14.01,2013-01-12 08:26:00,
2013-01-12 01:30:00,0.8,-7.6,30.05,ESE,120,5.0,6.0,67,0.00,,OVC120,0.00,VWS V14.01,2013-01-12 08:30:00,
2013-01-12 01:31:00,1.3,-7.4,30.04,ESE,120,3.0,3.0,66,0.00,,CLR,0.00,VWS V14.01,2013-01-12 08:31:00,
2013-01-12 01:36:00,1.3,-7.4,30.04,ESE,105,4.0,5.0,66,0.00,,CLR,0.00,VWS V14.01,2013-01-12 08:36:00,
2013-01-12 01:41:00,1.1,-7.6,30.04,ESE,117,3.0,5.0,66,0.00,,CLR,0.00,VWS V14.01,2013-01-12 08:41:00,
2013-01-12 01:46:00,1.0,-7.4,30.03,SE,129,4.0,5.0,67,0.00,,CLR,0.00,VWS V14.01,2013-01-12 08:46:00,
2013-01-12 01:51:00,0.9,-7.5,30.03,SE,131,3.0,5.0,67,0.00,,CLR,0.00,VWS V14.01,2013-01-12 08:51:00,
2013-01-12 01:56:00,0.8,-7.6,30.04,ESE,118,3.0,5.0,67,0.00,,CLR,0.00,VWS V14.01,2013-01-12 08:56:00,
2013-01-12 02:00:00,2.1,-6.6,30.05,ESE,117,4.0,7.0,66,0.00,,OVC120,0.00,VWS V14.01,2013-01-12 09:00:00,
2013-01-12 02:01:00,0.8,-7.3,30.04,ESE,122,4.0,4.0,68,0.00,,CLR,0.00,VWS V14.01,2013-01-12 09:01:00,
2013-01-12 02:06:00,1.0,-7.4,30.05,ESE,111,2.0,4.0,67,0.00,,CLR,0.00,VWS V14.01,2013-01-12 09:06:00,
2013-01-12 02:11:00,1.1,-7.3,30.04,ESE,117,4.0,4.0,67,0.00,,CLR,0.00,VWS V14.01,2013-01-12 09:11:00,
2013-01-12 02:16:00,0.9,-7.5,30.05,SE,129,5.0,6.0,67,0.00,,CLR,0.00,VWS V14.01,2013-01-12 09:16:00,
2013-01-12 02:21:00,0.8,-7.6,30.05,SE,131,4.0,6.0,67,0.00,,CLR,0.00,VWS V14.01,2013-01-12 09:21:00,
2013-01-12 02:28:00,0.8,-7.6,30.05,ESE,122,5.0,6.0,67,0.00,,CLR,0.00,VWS V14.01,2013-01-12 09:28:00,
2013-01-12 02:30:00,0.4,-7.7,30.07,SSE,152,0.0,5.0,68,0.00,,OVC120,0.00,VWS V14.01,2013-01-12 09:30:00,
2013-01-12 02:33:00,1.2,-7.2,30.05,SE,131,4.0,5.0,67,0.00,,CLR,0.00,VWS V14.01,2013-01-12 09:33:00,
2013-01-12 02:38:00,1.3,-7.4,30.05,ESE,120,5.0,6.0,66,0.00,,CLR,0.00,VWS V14.01,2013-01-12 09:38:00,
2013-01-12 02:43:00,1.2,-7.5,30.05,SE,129,5.0,6.0,66,0.00,,CLR,0.00,VWS V14.01,2013-01-12 09:43:00,
2013-01-12 02:48:00,1.3,-7.1,30.05,SE,129,6.0,6.0,67,0.00,,CLR,0.00,VWS V14.01,2013-01-12 09:48:00,
2013-01-12 02:53:00,1.6,-6.8,30.05,SE,131,4.0,6.0,67,0.00,,CLR,0.00,VWS V14.01,2013-01-12 09:53:00,
2013-01-12 02:58:00,2.1,-6.6,30.05,ESE,120,4.0,7.0,66,0.00,,CLR,0.00,VWS V14.01,2013-01-12 09:58:00,
2013-01-12 03:00:00,-1.0,-8.1,30.07,SSE,152,0.0,2.0,71,0.00,,OVC120,0.00,VWS V14.01,2013-01-12 10:00:00,
2013-01-12 03:03:00,2.5,-6.6,30.06,ESE,113,3.0,5.0,65,0.00,,CLR,0.00,VWS V14.01,2013-01-12 10:03:00,
2013-01-12 03:08:00,2.2,-6.8,30.06,ESE,108,2.0,5.0,65,0.00,,CLR,0.00,VWS V14.01,2013-01-12 10:08:00,
2013-01-12 03:14:00,1.9,-6.8,30.06,ESE,107,2.0,5.0,66,0.00,,CLR,0.00,VWS V14.01,2013-01-12 10:14:00,
2013-01-12 03:19:00,1.3,-7.7,30.06,East,92,0.0,5.0,65,0.00,,CLR,0.00,VWS V14.01,2013-01-12 10:19:00,
2013-01-12 03:24:00,0.7,-7.7,30.07,East,92,0.0,5.0,67,0.00,,CLR,0.00,VWS V14.01,2013-01-12 10:24:00,
2013-01-12 03:29:00,0.4,-7.7,30.07,SSE,152,0.0,0.0,68,0.00,,CLR,0.00,VWS V14.01,2013-01-12 10:29:00,
2013-01-12 03:30:00,-3.4,-9.6,30.07,WSW,257,1.0,2.0,74,0.00,,OVC120,0.00,VWS V14.01,2013-01-12 10:30:00,
2013-01-12 03:34:00,0.6,-7.2,30.07,West,273,0.0,1.0,69,0.00,,CLR,0.00,VWS V14.01,2013-01-12 10:34:00,
2013-01-12 03:39:00,0.2,-7.8,30.06,West,273,0.0,1.0,68,0.00,,CLR,0.00,VWS V14.01,2013-01-12 10:39:00,
2013-01-12 03:44:00,-0.2,-8.2,30.07,WNW,294,1.0,2.0,68,0.00,,CLR,0.00,VWS V14.01,2013-01-12 10:44:00,
2013-01-12 03:49:00,-0.8,-8.8,30.07,SSE,152,0.0,2.0,68,0.00,,CLR,0.00,VWS V14.01,2013-01-12 10:49:00,
2013-01-12 03:54:00,-1.1,-8.5,30.07,SSE,152,0.0,2.0,70,0.00,,CLR,0.00,VWS V14.01,2013-01-12 10:54:00,
2013-01-12 03:59:00,-1.0,-8.1,30.07,SSE,152,0.0,0.0,71,0.00,,CLR,0.00,VWS V14.01,2013-01-12 10:59:00,
2013-01-12 04:00:00,0.7,-8.3,30.07,NE,46,1.0,8.0,65,0.00,,OVC120,0.00,VWS V14.01,2013-01-12 11:00:00,
2013-01-12 04:04:00,-1.5,-8.9,30.07,NW,317,0.0,1.0,70,0.00,,CLR,0.00,VWS V14.01,2013-01-12 11:04:00,
2013-01-12 04:09:00,-2.2,-9.3,30.07,WNW,290,1.0,1.0,71,0.00,,CLR,0.00,VWS V14.01,2013-01-12 11:09:00,
2013-01-12 04:14:00,-2.7,-9.8,30.06,NE,40,0.0,2.0,71,0.00,,CLR,0.00,VWS V14.01,2013-01-12 11:14:00,
2013-01-12 04:20:00,-3.1,-9.6,30.07,NE,41,1.0,2.0,73,0.00,,CLR,0.00,VWS V14.01,2013-01-12 11:20:00,
2013-01-12 04:25:00,-3.2,-9.4,30.06,WSW,250,0.0,2.0,74,0.00,,CLR,0.00,VWS V14.01,2013-01-12 11:25:00,
2013-01-12 04:30:00,-3.4,-9.6,30.07,WSW,252,1.0,1.0,74,0.00,,CLR,0.00,VWS V14.01,2013-01-12 11:30:00,
2013-01-12 04:35:00,-3.3,-9.5,30.07,SSE,158,0.0,2.0,74,0.00,,CLR,0.00,VWS V14.01,2013-01-12 11:35:00,
2013-01-12 04:40:00,-2.8,-8.5,30.07,SE,135,0.0,2.0,76,0.00,,CLR,0.00,VWS V14.01,2013-01-12 11:40:00,
2013-01-12 04:45:00,-1.8,-7.5,30.08,SSE,160,3.0,5.0,76,0.00,,CLR,0.00,VWS V14.01,2013-01-12 11:45:00,
2013-01-12 04:50:00,0.4,-6.5,30.07,WSW,249,0.0,8.0,72,0.00,,CLR,0.00,VWS V14.01,2013-01-12 11:50:00,
2013-01-12 04:55:00,1.3,-6.5,30.07,East,93,0.0,8.0,69,0.00,,CLR,0.00,VWS V14.01,2013-01-12 11:55:00,
2013-01-12 05:00:00,0.3,-8.7,30.07,NE,54,1.0,1.0,65,0.00,,CLR,0.00,VWS V14.01,2013-01-12 12:00:00,
2013-01-12 05:05:00,-0.1,-8.0,30.07,East,94,2.0,4.0,68,0.00,,CLR,0.00,VWS V14.01,2013-01-12 12:05:00,
2013-01-12 05:10:00,-0.1,-8.4,30.07,SW,231,0.0,4.0,67,0.00,,CLR,0.00,VWS V14.01,2013-01-12 12:10:00,
2013-01-12 05:15:00,-0.7,-9.0,30.08,SSW,197,0.0,4.0,67,0.00,,CLR,0.00,VWS V14.01,2013-01-12 12:15:00,
2013-01-12 05:20:00,-1.1,-8.8,30.08,SW,214,1.0,4.0,69,0.00,,CLR,0.00,VWS V14.01,2013-01-12 12:20:00,
2013-01-12 05:25:00,-1.2,-8.6,30.08,SSW,204,1.0,4.0,70,0.00,,CLR,0.00,VWS V14.01,2013-01-12 12:25:00,
2013-01-12 05:30:00,-0.9,-8.3,30.08,South,172,0.0,1.0,70,0.00,,CLR,0.00,VWS V14.01,2013-01-12 12:30:00,
2013-01-12 05:35:00,-0.6,-8.0,30.09,SW,227,1.0,3.0,70,0.00,,CLR,0.00,VWS V14.01,2013-01-12 12:35:00,
2013-01-12 05:40:00,-0.2,-7.9,30.09,SE,138,0.0,3.0,69,0.00,,CLR,0.00,VWS V14.01,2013-01-12 12:40:00,
2013-01-12 05:45:00,-0.2,-8.2,30.09,SE,138,0.0,3.0,68,0.00,,CLR,0.00,VWS V14.01,2013-01-12 12:45:00,
2013-01-12 05:50:00,0.6,-7.8,30.09,SE,125,5.0,7.0,67,0.00,,CLR,0.00,VWS V14.01,2013-01-12 12:50:00,
2013-01-12 05:55:00,1.9,-7.8,30.10,East,95,5.0,10.0,63,0.00,,CLR,0.00,VWS V14.01,2013-01-12 12:55:00,
2013-01-12 06:00:00,2.4,-8.0,30.10,East,86,3.0,9.0,61,0.00,,CLR,0.00,VWS V14.01,2013-01-12 13:00:00,
2013-01-12 06:05:00,1.1,-9.2,30.11,East,85,2.0,9.0,61,0.00,,CLR,0.00,VWS V14.01,2013-01-12 13:05:00,
2013-01-12 06:10:00,0.7,-8.9,30.11,NNW,347,1.0,9.0,63,0.00,,CLR,0.00,VWS V14.01,2013-01-12 13:10:00,
2013-01-12 06:16:00,0.6,-8.4,30.12,WNW,299,0.0,9.0,65,0.00,,CLR,0.00,VWS V14.01,2013-01-12 13:16:00,
2013-01-12 06:21:00,0.4,-9.2,30.13,SSW,201,0.0,9.0,63,0.00,,CLR,0.00,VWS V14.01,2013-01-12 13:21:00,
2013-01-12 06:26:00,-0.7,-9.9,30.13,SSW,212,2.0,9.0,64,0.00,,CLR,0.00,VWS V14.01,2013-01-12 13:26:00,
2013-01-12 06:30:00,-3.8,-11.4,30.18,NE,44,0.0,2.0,69,0.00,,OVC120,0.00,VWS V14.01,2013-01-12 13:30:00,
2013-01-12 06:31:00,-1.3,-9.9,30.14,WSW,248,2.0,2.0,66,0.00,,CLR,0.00,VWS V14.01,2013-01-12 13:31:00,
2013-01-12 06:36:00,-1.8,-10.4,30.14,SSW,212,0.0,2.0,66,0.00,,CLR,0.00,VWS V14.01,2013-01-12 13:36:00,
2013-01-12 06:41:00,-2.4,-10.6,30.14,East,101,0.0,2.0,67,0.00,,CLR,0.00,VWS V14.01,2013-01-12 13:41:00,
2013-01-12 06:46:00,-3.1,-11.0,30.15,East,85,0.0,2.0,68,0.00,,CLR,0.00,VWS V14.01,2013-01-12 13:46:00,
2013-01-12 06:51:00,-3.2,-10.5,30.16,East,84,0.0,2.0,70,0.00,,CLR,0.00,VWS V14.01,2013-01-12 13:51:00,
2013-01-12 06:56:00,-3.5,-10.8,30.16,East,83,0.0,2.0,70,0.00,,CLR,0.00,VWS V14.01,2013-01-12 13:56:00,
2013-01-12 07:00:00,-6.3,-13.2,30.20,East,96,0.0,3.0,71,0.00,,OVC120,0.00,VWS V14.01,2013-01-12 14:00:00,
2013-01-12 07:01:00,-4.0,-11.3,30.16,East,84,0.0,0.0,70,0.00,,CLR,0.00,VWS V14.01,2013-01-12 14:01:00,
2013-01-12 07:06:00,-3.7,-10.7,30.16,East,89,2.0,2.0,71,0.00,,CLR,0.00,VWS V14.01,2013-01-12 14:06:00,
2013-01-12 07:11:00,-3.3,-10.6,30.17,East,84,1.0,2.0,70,0.00,,CLR,0.00,VWS V14.01,2013-01-12 14:11:00,
2013-01-12 07:16:00,-3.5,-10.8,30.17,ENE,67,0.0,2.0,70,0.00,,CLR,0.00,VWS V14.01,2013-01-12 14:16:00,
2013-01-12 07:21:00,-3.6,-10.9,30.18,NE,44,0.0,2.0,70,0.00,,CLR,0.00,VWS V14.01,2013-01-12 14:21:00,
2013-01-12 07:26:00,-3.7,-11.0,30.18,NE,44,0.0,2.0,70,0.00,,CLR,0.00,VWS V14.01,2013-01-12 14:26:00,
2013-01-12 07:30:00,-3.4,-11.9,30.23,West,271,1.0,2.0,66,0.00,,OVC120,0.00,VWS V14.01,2013-01-12 14:30:00,
2013-01-12 07:31:00,-4.0,-11.3,30.18,NE,44,0.0,0.0,70,0.00,,CLR,0.00,VWS V14.01,2013-01-12 14:31:00,
2013-01-12 07:36:00,-4.0,-11.3,30.18,NE,44,0.0,0.0,70,0.00,,CLR,0.00,VWS V14.01,2013-01-12 14:36:00,
2013-01-12 07:41:00,-4.7,-12.3,30.19,South,173,0.0,0.0,69,0.00,,CLR,0.00,VWS V14.01,2013-01-12 14:41:00,
2013-01-12 07:46:00,-4.8,-11.8,30.19,WSW,242,0.0,3.0,71,0.00,,CLR,0.00,VWS V14.01,2013-01-12 14:46:00,
2013-01-12 07:51:00,-5.4,-12.9,30.19,WSW,242,0.0,3.0,69,0.00,,CLR,0.00,VWS V14.01,2013-01-12 14:51:00,
2013-01-12 07:56:00,-6.1,-13.3,30.20,East,96,0.0,3.0,70,0.00,,CLR,0.00,VWS V14.01,2013-01-12 14:56:00,
2013-01-12 08:00:00,-1.0,-10.2,30.25,SW,224,2.0,4.0,64,0.00,,OVC120,0.00,VWS V14.01,2013-01-12 15:00:00,
2013-01-12 08:01:00,-6.5,-13.4,30.20,SSE,165,1.0,1.0,71,0.00,,SCT120,0.00,VWS V14.01,2013-01-12 15:01:00,
2013-01-12 08:06:00,-6.5,-13.1,30.21,SSE,148,0.0,1.0,72,0.00,,SCT120,0.00,VWS V14.01,2013-01-12 15:06:00,
2013-01-12 08:12:00,-5.2,-11.3,30.21,SE,145,2.0,2.0,74,0.00,,SCT120,0.00,VWS V14.01,2013-01-12 15:12:00,
2013-01-12 08:17:00,-3.2,-9.7,30.21,SSE,150,0.0,2.0,73,0.00,,SCT120,0.00,VWS V14.01,2013-01-12 15:17:00,
2013-01-12 08:22:00,-2.6,-10.5,30.22,West,263,1.0,2.0,68,0.00,,SCT120,0.00,VWS V14.01,2013-01-12 15:22:00,
2013-01-12 08:27:00,-3.2,-11.7,30.23,WNW,291,1.0,2.0,66,0.00,,SCT120,0.00,VWS V14.01,2013-01-12 15:27:00,
2013-01-12 08:30:00,1.4,-8.6,30.25,WNW,297,0.0,2.0,62,0.00,,OVC120,0.00,VWS V14.01,2013-01-12 15:30:00,
2013-01-12 08:32:00,-3.4,-11.6,30.24,SSE,153,1.0,1.0,67,0.00,,FEW110,0.00,VWS V14.01,2013-01-12 15:32:00,
2013-01-12 08:37:00,-2.4,-10.6,30.24,SE,125,1.0,2.0,67,0.00,,FEW110,0.00,VWS V14.01,2013-01-12 15:37:00,
2013-01-12 08:42:00,-1.9,-10.8,30.24,SE,133,0.0,2.0,65,0.00,,FEW110,0.00,VWS V14.01,2013-01-12 15:42:00,
2013-01-12 08:47:00,-0.9,-9.5,30.24,East,99,0.0,2.0,66,0.00,,CLR,0.00,VWS V14.01,2013-01-12 15:47:00,
2013-01-12 08:52:00,-0.3,-9.2,30.24,WSW,248,2.0,3.0,65,0.00,,CLR,0.00,VWS V14.01,2013-01-12 15:52:00,
2013-01-12 08:57:00,-1.1,-10.6,30.25,SW,215,2.0,4.0,63,0.00,,CLR,0.00,VWS V14.01,2013-01-12 15:57:00,
2013-01-12 09:00:00,2.8,-9.0,30.27,WNW,293,1.0,4.0,57,0.00,,OVC120,0.00,VWS V14.01,2013-01-12 16:00:00,
2013-01-12 09:02:00,-0.7,-9.9,30.25,West,281,0.0,2.0,64,0.00,,CLR,0.00,VWS V14.01,2013-01-12 16:02:00,
2013-01-12 09:07:00,-0.5,-10.1,30.25,West,275,0.0,2.0,63,0.00,,CLR,0.00,VWS V14.01,2013-01-12 16:07:00,
2013-01-12 09:12:00,-0.5,-10.4,30.25,West,277,0.0,2.0,62,0.00,,CLR,0.00,VWS V14.01,2013-01-12 16:12:00,
2013-01-12 09:17:00,-0.6,-10.8,30.25,WNW,297,0.0,2.0,61,0.00,,CLR,0.00,VWS V14.01,2013-01-12 16:17:00,
2013-01-12 09:22:00,-0.3,-10.2,30.26,WNW,296,0.0,2.0,62,0.00,,CLR,0.00,VWS V14.01,2013-01-12 16:22:00,
2013-01-12 09:27:00,1.0,-8.6,30.26,WNW,296,0.0,2.0,63,0.00,,CLR,0.00,VWS V14.01,2013-01-12 16:27:00,
2013-01-12 09:30:00,6.1,-7.3,30.26,WNW,285,1.0,3.0,53,0.00,,OVC120,0.00,VWS V14.01,2013-01-12 16:30:00,
2013-01-12 09:32:00,2.6,-7.1,30.25,WNW,293,0.0,0.0,63,0.00,,CLR,0.00,VWS V14.01,2013-01-12 16:32:00,
2013-01-12 09:37:00,4.2,-6.9,30.26,WNW,291,0.0,1.0,59,0.00,,CLR,0.00,VWS V14.01,2013-01-12 16:37:00,
2013-01-12 09:42:00,4.8,-7.4,30.26,WNW,291,2.0,3.0,56,0.00,,CLR,0.00,VWS V14.01,2013-01-12 16:42:00,
2013-01-12 09:47:00,3.6,-9.3,30.26,West,259,2.0,4.0,54,0.00,,CLR,0.00,VWS V14.01,2013-01-12 16:47:00,
2013-01-12 09:52:00,2.9,-9.2,30.27,WNW,282,1.0,4.0,56,0.00,,CLR,0.00,VWS V14.01,2013-01-12 16:52:00,
2013-01-12 09:57:00,2.6,-9.1,30.27,WNW,294,1.0,4.0,57,0.00,,CLR,0.00,VWS V14.01,2013-01-12 16:57:00,
2013-01-12 10:00:00,10.0,-6.6,30.25,East,84,0.0,3.0,46,0.00,,OVC120,0.00,VWS V14.01,2013-01-12 17:00:00,
2013-01-12 10:02:00,3.1,-8.3,30.26,West,259,0.0,1.0,58,0.00,,CLR,0.00,VWS V14.01,2013-01-12 17:02:00,
2013-01-12 10:07:00,4.8,-6.7,30.26,WSW,248,0.0,1.0,58,0.00,,CLR,0.00,VWS V14.01,2013-01-12 17:07:00,
2013-01-12 10:12:00,5.0,-8.0,30.26,WNW,295,0.0,1.0,54,0.00,,CLR,0.00,VWS V14.01,2013-01-12 17:12:00,
2013-01-12 10:17:00,5.8,-6.9,30.26,North,359,1.0,1.0,55,0.00,,CLR,0.00,VWS V14.01,2013-01-12 17:17:00,
2013-01-12 10:22:00,6.3,-7.2,30.26,WNW,289,2.0,2.0,53,0.00,,CLR,0.00,VWS V14.01,2013-01-12 17:22:00,
2013-01-12 10:27:00,6.1,-7.3,30.26,NW,325,1.0,3.0,53,0.00,,CLR,0.00,VWS V14.01,2013-01-12 17:27:00,
2013-01-12 10:30:00,11.5,-7.1,30.23,West,270,3.0,4.0,42,0.00,,OVC120,0.00,VWS V14.01,2013-01-12 17:30:00,
2013-01-12 10:32:00,6.5,-6.6,30.26,NW,321,1.0,2.0,54,0.00,,CLR,0.00,VWS V14.01,2013-01-12 17:32:00,
2013-01-12 10:37:00,6.7,-6.4,30.26,WNW,293,0.0,3.0,54,0.00,,CLR,0.00,VWS V14.01,2013-01-12 17:37:00,
2013-01-12 10:43:00,7.4,-6.1,30.26,WNW,284,0.0,3.0,53,0.00,,CLR,0.00,VWS V14.01,2013-01-12 17:43:00,
2013-01-12 10:48:00,8.5,-5.9,30.26,NW,320,0.0,3.0,51,0.00,,CLR,0.00,VWS V14.01,2013-01-12 17:48:00,
2013-01-12 10:53:00,9.2,-6.5,30.26,North,349,0.0,3.0,48,0.00,,CLR,0.00,VWS V14.01,2013-01-12 17:53:00,
2013-01-12 10:58:00,9.9,-6.7,30.26,East,79,0.0,3.0,46,0.00,,CLR,0.00,VWS V14.01,2013-01-12 17:58:00,
2013-01-12 11:00:00,13.6,-5.2,30.22,West,260,3.0,4.0,42,0.00,,OVC120,0.00,VWS V14.01,2013-01-12 18:00:00,
2013-01-12 11:03:00,10.7,-6.4,30.25,WNW,294,0.0,2.0,45,0.00,,CLR,0.00,VWS V14.01,2013-01-12 18:03:00,
2013-01-12 11:08:00,11.3,-6.4,30.25,NNW,340,1.0,2.0,44,0.00,,CLR,0.00,VWS V14.01,2013-01-12 18:08:00,
2013-01-12 11:13:00,11.5,-6.2,30.24,WNW,301,3.0,3.0,44,0.00,,CLR,0.00,VWS V14.01,2013-01-12 18:13:00,
2013-01-12 11:18:00,11.2,-7.4,30.24,NW,308,0.0,3.0,42,0.00,,CLR,0.00,VWS V14.01,2013-01-12 18:18:00,
2013-01-12 11:23:00,11.8,-6.4,30.24,NNW,327,0.0,3.0,43,0.00,,CLR,0.00,VWS V14.01,2013-01-12 18:23:00,
2013-01-12 11:28:00,11.7,-7.4,30.23,West,263,4.0,4.0,41,0.00,,CLR,0.00,VWS V14.01,2013-01-12 18:28:00,
2013-01-12 11:30:00,15.2,-5.3,30.20,NNW,330,2.0,5.0,39,0.00,,OVC120,0.00,VWS V14.01,2013-01-12 18:30:00,
2013-01-12 11:33:00,11.6,-7.0,30.23,West,274,2.0,4.0,42,0.00,,CLR,0.00,VWS V14.01,2013-01-12 18:33:00,
2013-01-12 11:38:00,11.9,-6.8,30.23,WNW,291,2.0,4.0,42,0.00,,CLR,0.00,VWS V14.01,2013-01-12 18:38:00,
2013-01-12 11:43:00,12.1,-6.1,30.22,West,276,2.0,4.0,43,0.00,,CLR,0.00,VWS V14.01,2013-01-12 18:43:00,
2013-01-12 11:48:00,12.2,-6.5,30.22,NNW,342,0.0,4.0,42,0.00,,CLR,0.00,VWS V14.01,2013-01-12 18:48:00,
2013-01-12 11:53:00,13.0,-5.8,30.22,NNE,29,0.0,4.0,42,0.00,,CLR,0.00,VWS V14.01,2013-01-12 18:53:00,
2013-01-12 11:58:00,13.5,-5.8,30.22,WNW,283,1.0,4.0,41,0.00,,CLR,0.00,VWS V14.01,2013-01-12 18:58:00,
2013-01-12 12:00:00,16.0,-6.2,30.19,NNE,30,5.0,6.0,36,0.00,,OVC120,0.00,VWS V14.01,2013-01-12 19:00:00,
2013-01-12 12:03:00,13.7,-5.6,30.21,WSW,257,2.0,5.0,41,0.00,,CLR,0.00,VWS V14.01,2013-01-12 19:03:00,
2013-01-12 12:08:00,14.3,-5.6,30.21,North,353,0.0,5.0,40,0.00,,CLR,0.00,VWS V14.01,2013-01-12 19:08:00,
2013-01-12 12:13:00,14.9,-6.1,30.21,NNW,333,2.0,5.0,38,0.00,,CLR,0.00,VWS V14.01,2013-01-12 19:13:00,
2013-01-12 12:18:00,15.0,-6.0,30.21,NW,317,0.0,5.0,38,0.00,,CLR,0.00,VWS V14.01,2013-01-12 19:18:00,
2013-01-12 12:23:00,15.3,-6.3,30.21,West,266,3.0,5.0,37,0.00,,CLR,0.00,VWS V14.01,2013-01-12 19:23:00,
2013-01-12 12:28:00,15.2,-5.8,30.20,NNW,345,2.0,5.0,38,0.00,,CLR,0.00,VWS V14.01,2013-01-12 19:28:00,
2013-01-12 12:30:00,16.6,-6.9,30.19,West,276,2.0,5.0,34,0.00,,OVC120,0.00,VWS V14.01,2013-01-12 19:30:00,
2013-01-12 12:33:00,15.6,-5.5,30.20,NW,305,0.0,3.0,38,0.00,,CLR,0.00,VWS V14.01,2013-01-12 19:33:00,
2013-01-12 12:38:00,16.0,-5.7,30.19,NW,312,2.0,4.0,37,0.00,,CLR,0.00,VWS V14.01,2013-01-12 19:38:00,
2013-01-12 12:43:00,15.8,-6.4,30.19,NW,325,3.0,4.0,36,0.00,,CLR,0.00,VWS V14.01,2013-01-12 19:43:00,
2013-01-12 12:48:00,15.8,-7.0,30.19,NNW,333,0.0,4.0,35,0.00,,CLR,0.00,VWS V14.01,2013-01-12 19:48:00,
2013-01-12 12:53:00,16.0,-6.8,30.19,WNW,290,3.0,4.0,35,0.00,,CLR,0.00,VWS V14.01,2013-01-12 19:53:00,
2013-01-12 12:59:00,16.0,-6.2,30.19,NNE,30,5.0,6.0,36,0.00,,CLR,0.00,VWS V14.01,2013-01-12 19:59:00,
2013-01-12 13:00:00,17.5,-6.7,30.19,WNW,294,2.0,5.0,33,0.00,,OVC120,0.00,VWS V14.01,2013-01-12 20:00:00,
2013-01-12 13:04:00,16.2,-6.1,30.19,ENE,58,1.0,5.0,36,0.00,,CLR,0.00,VWS V14.01,2013-01-12 20:04:00,
2013-01-12 13:09:00,16.7,-6.8,30.19,WNW,288,3.0,5.0,34,0.00,,CLR,0.00,VWS V14.01,2013-01-12 20:09:00,
2013-01-12 13:14:00,16.4,-7.1,30.19,East,86,1.0,5.0,34,0.00,,CLR,0.00,VWS V14.01,2013-01-12 20:14:00,
2013-01-12 13:19:00,16.4,-7.1,30.19,NW,309,0.0,5.0,34,0.00,,CLR,0.00,VWS V14.01,2013-01-12 20:19:00,
2013-01-12 13:24:00,16.6,-6.9,30.19,SSE,152,1.0,5.0,34,0.00,,CLR,0.00,VWS V14.01,2013-01-12 20:24:00,
2013-01-12 13:29:00,16.6,-6.9,30.19,West,260,2.0,3.0,34,0.00,,CLR,0.00,VWS V14.01,2013-01-12 20:29:00,
2013-01-12 13:30:00,18.0,-7.5,30.20,West,274,1.0,5.0,31,0.00,,OVC120,0.00,VWS V14.01,2013-01-12 20:30:00,
2013-01-12 13:34:00,17.0,-5.9,30.19,NW,309,1.0,4.0,35,0.00,,CLR,0.00,VWS V14.01,2013-01-12 20:34:00,
2013-01-12 13:39:00,16.8,-7.3,30.19,NW,307,4.0,5.0,33,0.00,,CLR,0.00,VWS V14.01,2013-01-12 20:39:00,
2013-01-12 13:44:00,16.5,-7.6,30.19,NNW,339,1.0,5.0,33,0.00,,CLR,0.00,VWS V14.01,2013-01-12 20:44:00,
2013-01-12 13:49:00,16.7,-7.4,30.19,West,274,2.0,5.0,33,0.00,,CLR,0.00,VWS V14.01,2013-01-12 20:49:00,
2013-01-12 13:54:00,17.0,-7.8,30.19,SW,233,2.0,5.0,32,0.00,,CLR,0.00,VWS V14.01,2013-01-12 20:54:00,
2013-01-12 13:59:00,17.6,-6.6,30.19,WNW,290,2.0,3.0,33,0.00,,CLR,0.00,VWS V14.01,2013-01-12 20:59:00,
2013-01-12 14:00:00,18.7,-6.9,30.20,NW,326,2.0,8.0,31,0.00,,OVC120,0.00,VWS V14.01,2013-01-12 21:00:00,
2013-01-12 14:04:00,17.7,-7.8,30.19,WNW,294,1.0,3.0,31,0.00,,CLR,0.00,VWS V14.01,2013-01-12 21:04:00,
2013-01-12 14:09:00,17.6,-7.2,30.19,NW,323,0.0,4.0,32,0.00,,CLR,0.00,VWS V14.01,2013-01-12 21:09:00,
2013-01-12 14:14:00,17.8,-7.1,30.19,West,277,3.0,4.0,32,0.00,,CLR,0.00,VWS V14.01,2013-01-12 21:14:00,
2013-01-12 14:19:00,17.9,-7.6,30.20,West,259,1.0,5.0,31,0.00,,CLR,0.00,VWS V14.01,2013-01-12 21:19:00,
2013-01-12 14:24:00,18.1,-7.4,30.20,NW,323,1.0,5.0,31,0.00,,CLR,0.00,VWS V14.01,2013-01-12 21:24:00,
2013-01-12 14:29:00,18.1,-6.8,30.20,WNW,302,1.0,1.0,32,0.00,,CLR,0.00,VWS V14.01,2013-01-12 21:29:00,
2013-01-12 14:30:00,19.5,-8.3,30.21,WNW,283,3.0,6.0,28,0.00,,OVC120,0.00,VWS V14.01,2013-01-12 21:30:00,
2013-01-12 14:34:00,18.5,-7.1,30.20,West,267,1.0,5.0,31,0.00,,CLR,0.00,VWS V14.01,2013-01-12 21:34:00,
2013-01-12 14:39:00,18.2,-8.7,30.20,WSW,258,2.0,8.0,29,0.00,,CLR,0.00,VWS V14.01,2013-01-12 21:39:00,
2013-01-12 14:44:00,18.4,-6.5,30.20,North,358,1.0,8.0,32,0.00,,CLR,0.00,VWS V14.01,2013-01-12 21:44:00,
2013-01-12 14:49:00,18.4,-6.5,30.20,NW,304,1.0,8.0,32,0.00,,CLR,0.00,VWS V14.01,2013-01-12 21:49:00,
2013-01-12 14:54:00,18.6,-6.3,30.20,NW,318,1.0,8.0,32,0.00,,CLR,0.00,VWS V14.01,2013-01-12 21:54:00,
2013-01-12 15:00:00,18.7,-6.9,30.20,NNE,33,2.0,3.0,31,0.00,,CLR,0.00,VWS V14.01,2013-01-12 22:00:00,
2013-01-12 15:05:00,19.0,-7.3,30.20,ENE,73,2.0,4.0,30,0.00,,CLR,0.00,VWS V14.01,2013-01-12 22:05:00,
2013-01-12 15:10:00,19.2,-6.5,30.21,WNW,298,3.0,5.0,31,0.00,,CLR,0.00,VWS V14.01,2013-01-12 22:10:00,
2013-01-12 15:15:00,18.8,-8.9,30.21,NW,315,1.0,5.0,28,0.00,,CLR,0.00,VWS V14.01,2013-01-12 22:15:00,
2013-01-12 15:20:00,18.7,-8.3,30.21,NNW,345,3.0,6.0,29,0.00,,CLR,0.00,VWS V14.01,2013-01-12 22:20:00,
2013-01-12 15:25:00,18.9,-8.8,30.21,West,278,0.0,6.0,28,0.00,,CLR,0.00,VWS V14.01,2013-01-12 22:25:00,
2013-01-12 15:30:00,19.6,-7.5,30.21,WNW,301,3.0,4.0,29,0.00,,CLR,0.00,VWS V14.01,2013-01-12 22:30:00,
2013-01-12 15:35:00,19.6,-8.2,30.21,West,281,1.0,6.0,28,0.00,,BKN075,0.00,VWS V14.01,2013-01-12 22:35:00,
2013-01-12 15:40:00,19.4,-9.1,30.21,NW,321,2.0,6.0,27,0.00,,BKN075,0.00,VWS V14.01,2013-01-12 22:40:00,
2013-01-12 15:45:00,19.4,-8.4,30.21,West,274,3.0,6.0,28,0.00,,BKN075,0.00,VWS V14.01,2013-01-12 22:45:00,
2013-01-12 15:50:00,19.1,-7.2,30.21,NW,305,5.0,6.0,30,0.00,,OVC075,0.00,VWS V14.01,2013-01-12 22:50:00,
2013-01-12 15:55:00,18.7,-7.6,30.21,NW,305,4.0,6.0,30,0.00,,OVC075,0.00,VWS V14.01,2013-01-12 22:55:00,
2013-01-12 16:00:00,17.9,-7.6,30.21,WNW,288,1.0,2.0,31,0.00,,OVC075,0.00,VWS V14.01,2013-01-12 23:00:00,
2013-01-12 16:05:00,17.1,-8.3,30.21,NW,304,4.0,6.0,31,0.00,,OVC075,0.00,VWS V14.01,2013-01-12 23:05:00,
2013-01-12 16:10:00,16.3,-7.1,30.22,West,281,1.0,6.0,34,0.00,,OVC075,0.00,VWS V14.01,2013-01-12 23:10:00,
2013-01-12 16:15:00,15.6,-7.2,30.22,WSW,254,3.0,6.0,35,0.00,,OVC075,0.00,VWS V14.01,2013-01-12 23:15:00,
2013-01-12 16:20:00,14.9,-6.7,30.22,WSW,250,5.0,6.0,37,0.00,,OVC075,0.00,VWS V14.01,2013-01-12 23:20:00,
2013-01-12 16:25:00,14.4,-6.6,30.22,West,280,2.0,6.0,38,0.00,,OVC075,0.00,VWS V14.01,2013-01-12 23:25:00,
2013-01-12 16:30:00,14.2,-6.2,30.22,West,263,2.0,3.0,39,0.00,,OVC075,0.00,VWS V14.01,2013-01-12 23:30:00,
2013-01-12 16:35:00,13.9,-5.9,30.22,West,277,2.0,3.0,40,0.00,,OVC085,0.00,VWS V14.01,2013-01-12 23:35:00,
2013-01-12 16:40:00,13.7,-5.6,30.22,WSW,257,1.0,3.0,41,0.00,,OVC085,0.00,VWS V14.01,2013-01-12 23:40:00,
2013-01-12 16:45:00,13.4,-5.4,30.23,WSW,250,1.0,3.0,42,0.00,,OVC085,0.00,VWS V14.01,2013-01-12 23:45:00,
2013-01-12 16:51:00,13.2,-3.7,30.23,WSW,255,4.0,9.0,46,0.00,,OVC085,0.00,VWS V14.01,2013-01-12 23:51:00,
2013-01-12 16:56:00,13.2,-2.0,30.23,SW,225,3.0,9.0,50,0.00,,OVC085,0.00,VWS V14.01,2013-01-12 23:56:00,
2013-01-12 17:00:00,10.9,-4.5,30.25,SSW,205,1.0,2.0,49,0.00,,OVC120,0.00,VWS V14.01,2013-01-13 00:00:00,
2013-01-12 17:01:00,13.2,-3.2,30.23,SW,228,2.0,6.0,47,0.00,,BKN085,0.00,VWS V14.01,2013-01-13 00:01:00,
2013-01-12 17:06:00,13.4,-3.5,30.23,WSW,255,4.0,6.0,46,0.00,,BKN085,0.00,VWS V14.01,2013-01-13 00:06:00,
2013-01-12 17:11:00,13.3,-2.3,30.23,NW,316,0.0,6.0,49,0.00,,BKN085,0.00,VWS V14.01,2013-01-13 00:11:00,
2013-01-12 17:16:00,13.1,-3.8,30.23,NW,315,0.0,6.0,46,0.00,,BKN085,0.00,VWS V14.01,2013-01-13 00:16:00,
2013-01-12 17:21:00,12.9,-3.5,30.23,NW,314,0.0,6.0,47,0.00,,BKN085,0.00,VWS V14.01,2013-01-13 00:21:00,
2013-01-12 17:26:00,12.7,-3.7,30.24,NW,311,0.0,6.0,47,0.00,,BKN085,0.00,VWS V14.01,2013-01-13 00:26:00,
2013-01-12 17:30:00,9.2,-4.4,30.28,South,174,0.0,3.0,53,0.00,,OVC120,0.00,VWS V14.01,2013-01-13 00:30:00,
2013-01-12 17:31:00,12.5,-3.9,30.24,West,264,1.0,2.0,47,0.00,,OVC085,0.00,VWS V14.01,2013-01-13 00:31:00,
2013-01-12 17:36:00,12.3,-3.6,30.24,West,266,0.0,2.0,48,0.00,,OVC085,0.00,VWS V14.01,2013-01-13 00:36:00,
2013-01-12 17:41:00,11.9,-4.0,30.24,SE,146,1.0,2.0,48,0.00,,OVC085,0.00,VWS V14.01,2013-01-13 00:41:00,
2013-01-12 17:46:00,11.4,-4.5,30.24,SE,145,1.0,2.0,48,0.00,,OVC085,0.00,VWS V14.01,2013-01-13 00:46:00,
2013-01-12 17:51:00,11.3,-4.6,30.25,SE,145,0.0,2.0,48,0.00,,OVC085,0.00,VWS V14.01,2013-01-13 00:51:00,
2013-01-12 17:56:00,11.0,-4.4,30.25,SE,145,0.0,2.0,49,0.00,,OVC085,0.00,VWS V14.01,2013-01-13 00:56:00,
2013-01-12 18:00:00,9.3,-5.2,30.28,South,179,2.0,7.0,51,0.00,,OVC120,0.00,VWS V14.01,2013-01-13 01:00:00,
2013-01-12 18:01:00,10.7,-4.3,30.25,SSW,196,2.0,3.0,50,0.00,,OVC085,0.00,VWS V14.01,2013-01-13 01:01:00,
2013-01-12 18:06:00,10.3,-4.2,30.26,South,186,2.0,3.0,51,0.00,,OVC085,0.00,VWS V14.01,2013-01-13 01:06:00,
2013-01-12 18:11:00,10.3,-3.8,30.26,WSW,238,1.0,3.0,52,0.00,,OVC085,0.00,VWS V14.01,2013-01-13 01:11:00,
2013-01-12 18:16:00,9.9,-3.8,30.27,West,264,2.0,3.0,53,0.00,,OVC085,0.00,VWS V14.01,2013-01-13 01:16:00,
2013-01-12 18:21:00,9.6,-4.1,30.27,WSW,248,1.0,3.0,53,0.00,,OVC085,0.00,VWS V14.01,2013-01-13 01:21:00,
2013-01-12 18:26:00,9.4,-4.3,30.27,South,170,0.0,3.0,53,0.00,,OVC085,0.00,VWS V14.01,2013-01-13 01:26:00,
2013-01-12 18:30:00,9.6,-5.3,30.29,WSW,246,2.0,4.0,50,0.00,,OVC120,0.00,VWS V14.01,2013-01-13 01:30:00,
2013-01-12 18:31:00,9.0,-4.6,30.28,SE,129,2.0,2.0,53,0.00,,OVC085,0.00,VWS V14.01,2013-01-13 01:31:00,
2013-01-12 18:36:00,8.8,-4.8,30.28,SE,136,2.0,3.0,53,0.00,,OVC085,0.00,VWS V14.01,2013-01-13 01:36:00,
2013-01-12 18:41:00,8.8,-4.8,30.28,SSW,201,2.0,3.0,53,0.00,,OVC085,0.00,VWS V14.01,2013-01-13 01:41:00,
2013-01-12 18:46:00,8.9,-4.7,30.28,SSW,211,2.0,5.0,53,0.00,,OVC085,0.00,VWS V14.01,2013-01-13 01:46:00,
2013-01-12 18:52:00,9.1,-4.9,30.28,SSW,203,3.0,7.0,52,0.00,,OVC085,0.00,VWS V14.01,2013-01-13 01:52:00,
2013-01-12 18:57:00,9.2,-4.8,30.28,South,183,3.0,7.0,52,0.00,,OVC085,0.00,VWS V14.01,2013-01-13 01:57:00,
2013-01-12 19:00:00,6.3,-6.0,30.30,SSE,167,0.0,2.0,56,0.00,,OVC120,0.00,VWS V14.01,2013-01-13 02:00:00,
2013-01-12 19:02:00,9.3,-5.2,30.28,SW,222,2.0,3.0,51,0.00,,OVC085,0.00,VWS V14.01,2013-01-13 02:02:00,
2013-01-12 19:07:00,9.5,-5.0,30.28,South,176,2.0,4.0,51,0.00,,OVC085,0.00,VWS V14.01,2013-01-13 02:07:00,
2013-01-12 19:12:00,9.6,-4.9,30.28,SW,215,2.0,4.0,51,0.00,,OVC085,0.00,VWS V14.01,2013-01-13 02:12:00,
2013-01-12 19:17:00,9.8,-4.7,30.28,SW,226,3.0,4.0,51,0.00,,OVC085,0.00,VWS V14.01,2013-01-13 02:17:00,
2013-01-12 19:22:00,9.8,-5.1,30.28,SSW,204,1.0,4.0,50,0.00,,OVC085,0.00,VWS V14.01,2013-01-13 02:22:00,
2013-01-12 19:27:00,9.7,-5.2,30.28,SW,236,0.0,4.0,50,0.00,,OVC085,0.00,VWS V14.01,2013-01-13 02:27:00,
2013-01-12 19:30:00,3.9,-6.5,30.31,ESE,120,4.0,5.0,61,0.00,,OVC120,0.00,VWS V14.01,2013-01-13 02:30:00,
2013-01-12 19:32:00,9.3,-5.2,30.28,WNW,298,0.0,2.0,51,0.00,,OVC095,0.00,VWS V14.01,2013-01-13 02:32:00,
2013-01-12 19:37:00,8.8,-5.2,30.28,WNW,298,0.0,2.0,52,0.00,,OVC095,0.00,VWS V14.01,2013-01-13 02:37:00,
2013-01-12 19:42:00,8.4,-5.2,30.29,SW,218,0.0,2.0,53,0.00,,OVC095,0.00,VWS V14.01,2013-01-13 02:42:00,
2013-01-12 19:47:00,7.5,-5.7,30.29,SSE,162,1.0,2.0,54,0.00,,OVC095,0.00,VWS V14.01,2013-01-13 02:47:00,
2013-01-12 19:53:00,6.7,-6.0,30.29,SSE,162,0.0,2.0,55,0.00,,OVC095,0.00,VWS V14.01,2013-01-13 02:53:00,
2013-01-12 19:58:00,6.3,-6.0,30.29,SE,139,1.0,2.0,56,0.00,,OVC095,0.00,VWS V14.01,2013-01-13 02:58:00,
2013-01-12 20:00:00,4.0,-7.1,30.31,East,99,2.0,4.0,59,0.00,,OVC120,0.00,VWS V14.01,2013-01-13 03:00:00,
2013-01-12 20:03:00,6.3,-6.0,30.30,SSE,157,1.0,1.0,56,0.00,,OVC095,0.00,VWS V14.01,2013-01-13 03:03:00,
2013-01-12 20:08:00,5.9,-6.8,30.30,SE,124,2.0,2.0,55,0.00,,OVC095,0.00,VWS V14.01,2013-01-13 03:08:00,
2013-01-12 20:13:00,5.0,-7.3,30.30,SE,127,3.0,3.0,56,0.00,,OVC095,0.00,VWS V14.01,2013-01-13 03:13:00,
2013-01-12 20:18:00,4.6,-6.6,30.30,SE,125,3.0,3.0,59,0.00,,BKN095,0.00,VWS V14.01,2013-01-13 03:18:00,
2013-01-12 20:23:00,4.3,-6.8,30.31,ESE,121,2.0,4.0,59,0.00,,BKN095,0.00,VWS V14.01,2013-01-13 03:23:00,
2013-01-12 20:28:00,4.0,-6.8,30.31,ESE,114,3.0,5.0,60,0.00,,BKN095,0.00,VWS V14.01,2013-01-13 03:28:00,
2013-01-12 20:30:00,2.7,-7.7,30.32,ESE,120,1.0,3.0,61,0.00,,OVC120,0.00,VWS V14.01,2013-01-13 03:30:00,
2013-01-12 20:33:00,3.8,-6.6,30.31,ESE,123,2.0,4.0,61,0.00,,CLR,0.00,VWS V14.01,2013-01-13 03:33:00,
2013-01-12 20:38:00,3.8,-6.6,30.31,ESE,118,1.0,4.0,61,0.00,,CLR,0.00,VWS V14.01,2013-01-13 03:38:00,
2013-01-12 20:43:00,4.1,-6.3,30.31,SE,146,1.0,4.0,61,0.00,,CLR,0.00,VWS V14.01,2013-01-13 03:43:00,
2013-01-12 20:48:00,4.4,-6.4,30.31,SE,143,0.0,4.0,60,0.00,,FEW055,0.00,VWS V14.01,2013-01-13 03:48:00,
2013-01-12 20:53:00,4.3,-6.8,30.31,SE,131,1.0,4.0,59,0.00,,FEW055,0.00,VWS V14.01,2013-01-13 03:53:00,
2013-01-12 20:58:00,4.0,-7.1,30.31,East,99,1.0,4.0,59,0.00,,FEW055,0.00,VWS V14.01,2013-01-13 03:58:00,
2013-01-12 21:00:00,2.5,-6.6,30.32,SE,137,0.0,4.0,65,0.00,,OVC120,0.00,VWS V14.01,2013-01-13 04:00:00,
2013-01-12 21:03:00,3.9,-6.9,30.31,ESE,109,2.0,2.0,60,0.00,,CLR,0.00,VWS V14.01,2013-01-13 04:03:00,
2013-01-12 21:08:00,3.5,-6.9,30.31,ESE,112,1.0,2.0,61,0.00,,CLR,0.00,VWS V14.01,2013-01-13 04:08:00,
2013-01-12 21:13:00,3.9,-6.5,30.31,ESE,111,0.0,2.0,61,0.00,,CLR,0.00,VWS V14.01,2013-01-13 04:13:00,
2013-01-12 21:18:00,3.7,-7.8,30.31,ESE,109,0.0,2.0,58,0.00,,CLR,0.00,VWS V14.01,2013-01-13 04:18:00,
2013-01-12 21:23:00,2.8,-7.6,30.32,ESE,118,2.0,3.0,61,0.00,,CLR,0.00,VWS V14.01,2013-01-13 04:23:00,
2013-01-12 21:28:00,2.8,-7.6,30.32,ESE,120,1.0,3.0,61,0.00,,CLR,0.00,VWS V14.01,2013-01-13 04:28:00,
2013-01-12 21:30:00,4.6,-6.6,30.32,South,172,2.0,5.0,59,0.00,,OVC120,0.00,VWS V14.01,2013-01-13 04:30:00,
2013-01-12 21:33:00,2.3,-8.1,30.32,ESE,117,0.0,1.0,61,0.00,,CLR,0.00,VWS V14.01,2013-01-13 04:33:00,
2013-01-12 21:38:00,1.8,-8.2,30.32,SE,131,1.0,3.0,62,0.00,,CLR,0.00,VWS V14.01,2013-01-13 04:38:00,
2013-01-12 21:43:00,1.7,-7.7,30.32,SE,124,3.0,3.0,64,0.00,,CLR,0.00,VWS V14.01,2013-01-13 04:43:00,
2013-01-12 21:48:00,1.7,-8.0,30.32,ESE,116,2.0,4.0,63,0.00,,CLR,0.00,VWS V14.01,2013-01-13 04:48:00,
2013-01-12 21:54:00,1.3,-8.7,30.33,SE,124,1.0,4.0,62,0.00,,CLR,0.00,VWS V14.01,2013-01-13 04:54:00,
2013-01-12 21:59:00,2.5,-6.6,30.32,SE,137,0.0,4.0,65,0.00,,CLR,0.00,VWS V14.01,2013-01-13 04:59:00,
2013-01-12 22:00:00,0.8,-9.1,30.34,SSW,205,0.0,4.0,62,0.00,,OVC120,0.00,VWS V14.01,2013-01-13 05:00:00,
2013-01-12 22:02:00,3.3,-6.4,30.33,SE,136,0.0,2.0,63,0.00,,CLR,0.00,VWS V14.01,2013-01-13 05:02:00,
2013-01-12 22:03:00,3.5,-6.6,30.32,SE,136,0.0,2.0,62,0.00,,CLR,0.00,VWS V14.01,2013-01-13 05:03:00,
2013-01-12 22:06:00,3.7,-6.7,30.32,SE,136,0.0,2.0,61,0.00,,CLR,0.00,VWS V14.01,2013-01-13 05:06:00,
2013-01-12 22:07:00,3.8,-6.6,30.32,SE,136,0.0,2.0,61,0.00,,CLR,0.00,VWS V14.01,2013-01-13 05:07:00,
2013-01-12 22:12:00,3.7,-7.4,30.32,SSE,162,4.0,4.0,59,0.00,,CLR,0.00,VWS V14.01,2013-01-13 05:12:00,
2013-01-12 22:17:00,3.9,-6.9,30.32,SE,145,2.0,4.0,60,0.00,,CLR,0.00,VWS V14.01,2013-01-13 05:17:00,
2013-01-12 22:22:00,4.2,-6.9,30.32,South,179,2.0,5.0,59,0.00,,CLR,0.00,VWS V14.01,2013-01-13 05:22:00,
2013-01-12 22:27:00,4.5,-6.7,30.32,South,181,4.0,5.0,59,0.00,,CLR,0.00,VWS V14.01,2013-01-13 05:27:00,
2013-01-12 22:30:00,-0.4,-9.6,30.34,South,183,0.0,3.0,64,0.00,,OVC120,0.00,VWS V14.01,2013-01-13 05:30:00,
2013-01-12 22:32:00,4.8,-6.7,30.33,SSE,166,1.0,3.0,58,0.00,,CLR,0.00,VWS V14.01,2013-01-13 05:32:00,
2013-01-12 22:37:00,4.8,-7.1,30.33,SSE,166,0.0,4.0,57,0.00,,CLR,0.00,VWS V14.01,2013-01-13 05:37:00,
2013-01-12 22:42:00,4.0,-7.8,30.33,NNE,15,0.0,4.0,57,0.00,,CLR,0.00,VWS V14.01,2013-01-13 05:42:00,
2013-01-12 22:47:00,2.9,-8.5,30.34,SW,232,0.0,4.0,58,0.00,,CLR,0.00,VWS V14.01,2013-01-13 05:47:00,
2013-01-12 22:52:00,2.0,-8.7,30.33,SSW,205,0.0,4.0,60,0.00,,CLR,0.00,VWS V14.01,2013-01-13 05:52:00,
2013-01-12 22:57:00,1.0,-9.3,30.34,SSW,205,0.0,4.0,61,0.00,,CLR,0.00,VWS V14.01,2013-01-13 05:57:00,
2013-01-12 23:00:00,-1.8,-9.5,30.35,East,92,1.0,3.0,69,0.00,,OVC120,0.00,VWS V14.01,2013-01-13 06:00:00,
2013-01-12 23:02:00,0.3,-9.3,30.34,SSW,206,0.0,0.0,63,0.00,,CLR,0.00,VWS V14.01,2013-01-13 06:02:00,
2013-01-12 23:07:00,-0.2,-9.5,30.34,ESE,111,2.0,3.0,64,0.00,,CLR,0.00,VWS V14.01,2013-01-13 06:07:00,
2013-01-12 23:12:00,0.2,-8.8,30.34,SE,129,1.0,3.0,65,0.00,,CLR,0.00,VWS V14.01,2013-01-13 06:12:00,
2013-01-12 23:17:00,1.7,-7.3,30.34,ESE,105,0.0,3.0,65,0.00,,CLR,0.00,VWS V14.01,2013-01-13 06:17:00,
2013-01-12 23:22:00,1.0,-9.3,30.34,SW,235,0.0,3.0,61,0.00,,CLR,0.00,VWS V14.01,2013-01-13 06:22:00,
2013-01-12 23:27:00,-0.3,-9.9,30.34,South,186,0.0,3.0,63,0.00,,CLR,0.00,VWS V14.01,2013-01-13 06:27:00,
2013-01-12 23:30:00,-1.5,-9.5,30.36,ESE,111,0.0,4.0,68,0.00,,OVC120,0.00,VWS V14.01,2013-01-13 06:30:00,
2013-01-12 23:33:00,-0.7,-9.3,30.34,South,183,0.0,0.0,66,0.00,,CLR,0.00,VWS V14.01,2013-01-13 06:33:00,
2013-01-12 23:38:00,-0.5,-8.5,30.35,South,176,0.0,0.0,68,0.00,,CLR,0.00,VWS V14.01,2013-01-13 06:38:00,
2013-01-12 23:43:00,-0.7,-9.3,30.35,ESE,115,0.0,1.0,66,0.00,,CLR,0.00,VWS V14.01,2013-01-13 06:43:00,
2013-01-12 23:48:00,-1.2,-9.5,30.35,ENE,76,1.0,1.0,67,0.00,,CLR,0.00,VWS V14.01,2013-01-13 06:48:00,
2013-01-12 23:53:00,-1.7,-10.3,30.35,East,88,2.0,3.0,66,0.00,,CLR,0.00,VWS V14.01,2013-01-13 06:53:00,
2013-01-12 23:58:00,-1.9,-9.9,30.35,East,98,1.0,3.0,68,0.00,,CLR,0.00,VWS V14.01,2013-01-13 06:58:00,